[[{"header":{"parameterUnit":"m.s-1","parameterCategory":1,"la1":30.2991,"la2":30.254,"lo1":-89.0895,"lo2":-89.0444,"dy":0.0017,"dx":0.0017,"nx":28,"ny":28,"refTime":"2025-11-20T03:00:00:Z","depth":0,"parameterNumber":2,"parameterNumberName":"U-component_of_WINDS"},"data":[0,0,0,0,0,0,0,0,0,0,0,0,0,0,0,0,0,0,0,0,0,0,0,0,0,0,0,0,0,0,0,0,0,0,0,0,0,0,0,0,0,0,0,0,0,0,0,0,0,0,0,0,0,0,0,0,0,0,-2.8089,-2.8089,0,-2.8102,-2.8102,-2.8103,-2.8065,-2.8064,-2.8063,-2.8061,-2.8074,-2.8075,-2.8077,0,0,0,0,0,0,0,0,0,0,0,0,0,-2.8032,-2.8033,-2.8089,-2.8089,-2.809,-2.8102,-2.8102,-2.8103,-2.8065,-2.8064,-2.8062,-2.8061,-2.8073,-2.8075,-2.8077,0,0,0,0,0,0,0,0,0,0,0,0,0,-2.8052,-2.8034,-2.8089,-2.8072,-2.8071,-2.8102,-2.8102,-2.8103,-2.8065,-2.8064,-2.8062,-2.806,-2.8073,-2.8075,-2.8077,-2.8125,0,0,-2.8083,-2.8084,0,0,0,0,0,0,0,0,-2.8051,-2.8054,-2.8075,-2.8074,-2.8072,-2.808,-2.8087,-2.811,-2.8066,-2.8068,-2.8061,-2.8059,-2.8077,-2.8079,-2.8085,-2.8125,-2.8126,-2.8084,-2.8085,-2.8086,-2.8086,0,0,0,0,0,0,0,-2.805,-2.8053,-2.8094,-2.8075,-2.8074,-2.8064,-2.8065,-2.8091,-2.8082,-2.8067,-2.8065,-2.8067,-2.8076,-2.8083,-2.8085,-2.8126,-2.8084,-2.8085,-2.8087,-2.8088,-2.8207,-2.8208,0,0,0,0,0,0,-2.805,-2.8053,-2.8094,-2.8095,-2.8057,-2.8067,-2.8068,-2.8079,-2.8082,-2.808,-2.8068,-2.8065,-2.808,-2.8083,-2.8085,-2.8141,-2.8086,-2.8088,-2.8089,-2.8205,-2.8207,-2.8209,0,0,0,0,0,0,-2.8049,-2.8055,-2.8093,-2.8073,-2.8077,-2.807,-2.8083,-2.8081,-2.8087,-2.8082,-2.808,-2.8077,-2.8079,-2.8082,-2.8115,-2.8141,-2.8089,-2.8091,-2.8202,-2.8205,-2.8208,-2.8254,0,0,0,0,0,0,-2.8048,-2.8054,-2.8072,-2.8074,-2.8078,-2.8123,-2.8084,-2.8082,-2.8091,-2.8087,-2.809,-2.8089,-2.8078,-2.8112,-2.8118,-2.8143,-2.8092,-2.82,-2.8204,-2.8207,-2.825,-2.8258,-2.8264,0,0,0,0,0,-2.8046,-2.8084,-2.8073,-2.8079,-2.8101,-2.8125,-2.8127,-2.8115,-2.8093,-2.8111,-2.8108,-2.8089,-2.8138,-2.8116,-2.8122,-2.8148,-2.8198,-2.8203,-2.8207,-2.8246,-2.8256,-2.8264,0,0,0,0,0,0,-2.8085,-2.8084,-2.8072,-2.8112,-2.8119,-2.8118,-2.814,-2.8125,-2.8138,-2.8133,-2.8117,-2.8118,-2.8154,-2.8155,-2.813,-2.8195,-2.8164,-2.817,-2.8193,-2.8202,-2.8209,-2.8208,-2.8094,0,0,0,0,0,-2.8099,-2.8119,-2.8117,-2.8152,-2.8156,-2.8148,-2.8158,-2.8148,-2.8154,-2.8157,-2.8156,-2.8163,-2.818,-2.8191,-2.8206,-2.825,-2.825,-2.8272,-2.8279,-2.8285,-2.8289,-2.8313,-2.8322,-2.8223,-2.8223,-2.8223,0,0,-2.8127,-2.8129,-2.8142,-2.816,-2.8164,-2.8185,-2.8151,-2.8174,-2.8189,-2.816,-2.8191,-2.8191,-2.8197,-2.8236,-2.8253,-2.8238,-2.8317,-2.829,-2.8295,-2.8296,-2.8318,-2.8328,-2.8336,-2.8226,-2.8225,-2.8225,0,0,-2.8188,-2.8191,-2.8221,-2.8226,-2.8233,-2.8228,-2.8235,-2.8238,-2.8237,-2.8268,-2.8247,-2.8265,-2.8294,-2.83,-2.8307,-2.8372,-2.8354,-2.8377,-2.8415,-2.8438,-2.8446,-2.8453,-2.8476,-2.8484,-2.8382,-2.8382,-2.8382,0,-2.8221,-2.8251,-2.8238,-2.8263,-2.8272,-2.8248,-2.8278,-2.8284,-2.8295,-2.8302,-2.8285,-2.8322,-2.8325,-2.8365,-2.8381,-2.8387,-2.8395,-2.8376,-2.8446,-2.8453,-2.8459,-2.848,-2.8489,-2.8385,-2.8385,-2.8384,-2.8384,0,-2.8292,-2.8314,-2.8337,-2.835,-2.8361,-2.8389,-2.838,-2.8393,-2.8383,-2.8379,-2.8411,-2.8414,-2.843,-2.8439,-2.8428,-2.8477,-2.8468,-2.8449,-2.8418,-2.8471,-2.8491,-2.8499,-2.8389,-2.8388,-2.8387,-2.8386,0,0,-2.8376,-2.8382,-2.8391,-2.8397,-2.8403,-2.842,-2.8447,-2.8463,-2.8474,-2.8484,-2.8506,-2.8532,-2.8515,-2.8523,-2.8513,-2.8534,-2.8585,-2.8512,-2.8512,-2.8525,-2.8639,-2.8652,-2.8662,-2.8574,-2.8575,-2.8577,-2.8638,0,-2.8436,-2.8482,-2.8471,-2.8517,-2.8537,-2.8515,-2.8538,-2.8545,-2.8543,-2.856,-2.8557,-2.8576,-2.8552,-2.8557,-2.8576,-2.8574,-2.8607,-2.857,-2.8593,-2.8594,-2.8591,-2.8672,-2.8686,-2.8744,-2.8646,-2.8647,-2.8648,0,-2.8511,-2.8524,-2.8571,-2.8575,-2.8583,-2.8605,-2.8619,-2.8635,-2.8643,-2.864,-2.865,-2.8636,-2.8663,-2.8633,-2.867,-2.8645,-2.8654,-2.8655,-2.8657,-2.8657,-2.8623,-2.8674,-2.8762,-2.877,-2.866,-2.8659,-2.8658,0,-2.8567,-2.8596,-2.8628,-2.8634,-2.864,-2.8655,-2.8658,-2.8664,-2.8675,-2.8688,-2.8694,-2.871,-2.8718,-2.8731,-2.8722,-2.8701,-2.876,-2.8729,-2.8758,-2.8758,-2.877,-2.8769,-2.886,-2.8778,-2.8778,-2.8778,-2.8778,0,-2.8633,-2.8663,-2.8653,-2.8673,-2.8706,-2.8695,-2.8727,-2.8728,-2.8734,-2.8753,-2.8736,-2.8755,-2.8743,-2.8761,-2.8754,-2.8785,-2.8789,-2.8788,-2.8785,-2.8789,-2.8789,-2.8793,-2.8789,-2.878,-2.878,-2.8779,-2.8779,0,-2.8701,-2.8695,-2.8729,-2.8733,-2.8734,-2.8758,-2.8761,-2.878,-2.8777,-2.8802,-2.8807,-2.8803,-2.8823,-2.8816,-2.8838,-2.8834,-2.8873,-2.8866,-2.8871,-2.8868,-2.8897,-2.8894,-2.8993,-2.9005,-2.8917,-2.8918,-2.8918,0,-2.8743,-2.8765,-2.8772,-2.8784,-2.8788,-2.8808,-2.8819,-2.8809,-2.8821,-2.8832,-2.8849,-2.8868,-2.8883,-2.8916,-2.8915,-2.8931,-2.8924,-2.8958,-2.8926,-2.8929,-2.8924,-2.8922,-2.8924,-2.8963,-2.8964,-2.8965,-2.8966,0,-2.8818,-2.8815,-2.8832,-2.8848,-2.8861,-2.8873,-2.8884,-2.8895,-2.8886,-2.89,-2.8921,-2.8932,-2.8955,-2.8974,-2.8989,-2.8992,-2.8978,-2.8976,-2.8984,-2.8986,-2.8988,-2.8987,-2.8887,-2.8973,-2.8973,-2.8972,-2.8972,-2.8971,-2.8874,-2.8893,-2.8901,-2.892,-2.8927,-2.8938,-2.8955,-2.8955,-2.8972,-2.899,-2.8984,-2.9007,-2.9015,-2.9034,-2.904,-2.9059,-2.9046,-2.9057,-2.9059,-2.9062,-2.9065,-2.8986,-2.9062,-2.9061,-2.9061,-2.9061,-2.9061,0,-2.8948,-2.8952,-2.897,-2.8986,-2.9001,-2.8987,-2.8998,-2.9012,-2.9033,-2.9042,-2.9057,-2.9081,-2.91,-2.9101,-2.9118,-2.9133,-2.9127,-2.9138,-2.9136,-2.9137,-2.9076,-2.9067,-2.9143,-2.9143,-2.9143,-2.9143,-2.9143,-2.9143,-2.8988,-2.902,-2.9018,-2.9053,-2.9057,-2.908,-2.9088,-2.9098,-2.9105,-2.9133,-2.9148,-2.9149,-2.9155,-2.9173,-2.9189,-2.9189,-2.9196,-2.921,-2.9207,-2.915,-2.9141,-2.9134,-2.9125,-2.9212,-2.9212,-2.9266,-2.9267,-2.9267]},{"header":{"parameterUnit":"m.s-1","parameterCategory":1,"la1":30.2991,"la2":30.254,"lo1":-89.0895,"lo2":-89.0444,"dy":0.0017,"dx":0.0017,"nx":28,"ny":28,"refTime":"2025-11-20T03:00:00:Z","depth":0,"parameterNumber":3,"parameterNumberName":"V-component_of_WINDS"},"data":[0,0,0,0,0,0,0,0,0,0,0,0,0,0,0,0,0,0,0,0,0,0,0,0,0,0,0,0,0,0,0,0,0,0,0,0,0,0,0,0,0,0,0,0,0,0,0,0,0,0,0,0,0,0,0,0,0,0,2.9347,2.9348,0,2.9488,2.9489,2.9491,2.9524,2.9523,2.9522,2.9521,2.9665,2.967,2.9674,0,0,0,0,0,0,0,0,0,0,0,0,0,2.9108,2.9112,2.9346,2.9348,2.935,2.9487,2.9489,2.9491,2.9524,2.9523,2.9522,2.9521,2.9664,2.9669,2.9675,0,0,0,0,0,0,0,0,0,0,0,0,0,2.9226,2.9113,2.9346,2.9383,2.9388,2.9487,2.9489,2.9492,2.9524,2.9523,2.9522,2.952,2.9662,2.9669,2.9676,2.9748,0,0,2.9697,2.97,0,0,0,0,0,0,0,0,2.922,2.9235,2.9376,2.9381,2.9386,2.9487,2.9458,2.9578,2.9525,2.9472,2.9521,2.952,2.9607,2.9618,2.9648,2.9755,2.9761,2.9698,2.9702,2.9705,2.9707,0,0,0,0,0,0,0,2.9211,2.9229,2.9402,2.9378,2.9384,2.9393,2.9409,2.9481,2.9546,2.9477,2.948,2.9496,2.9609,2.9641,2.9652,2.9763,2.9698,2.9704,2.9708,2.9711,2.9942,2.9943,0,0,0,0,0,0,2.9197,2.9222,2.9398,2.9407,2.9298,2.9399,2.9416,2.9456,2.9545,2.9558,2.9497,2.9497,2.963,2.9643,2.9657,2.9751,2.9705,2.9712,2.9716,2.994,2.9942,2.9944,0,0,0,0,0,0,2.9191,2.9212,2.9392,2.9315,2.9339,2.9404,2.9449,2.9459,2.9491,2.9561,2.9572,2.9517,2.9629,2.9647,2.9726,2.9756,2.9715,2.9721,2.9937,2.994,2.9943,2.9937,0,0,0,0,0,0,2.9184,2.921,2.9237,2.9316,2.9343,2.9458,2.9451,2.9463,2.9503,2.9505,2.9583,2.9594,2.9629,2.9716,2.9733,2.9765,2.9727,2.9935,2.9939,2.9942,2.9935,2.9939,2.9943,0,0,0,0,0,2.9176,2.9229,2.9238,2.9259,2.9378,2.946,2.9476,2.9515,2.9505,2.9535,2.958,2.9592,2.975,2.9723,2.9744,2.9778,2.9933,2.9938,2.9942,2.9933,2.9938,2.9943,0,0,0,0,0,0,2.9151,2.9239,2.9251,2.9331,2.9388,2.9465,2.9503,2.9519,2.9579,2.9578,2.9624,2.9642,2.9719,2.9756,2.9725,2.9855,2.9842,2.985,2.9828,2.9833,2.9837,2.9827,2.9733,0,0,0,0,0,2.9155,2.9213,2.9288,2.9351,2.9379,2.9436,2.9473,2.9499,2.956,2.9584,2.9634,2.9693,2.9757,2.9797,2.9859,2.994,2.996,2.9974,2.9978,2.9981,2.9988,3.0038,3.0046,2.9958,2.9958,2.9958,0,0,2.9163,2.9219,2.9252,2.9348,2.9395,2.9456,2.9456,2.9519,2.9565,2.9593,2.9672,2.9712,2.9781,2.9862,2.9901,2.9896,3.0017,2.9987,2.9989,2.9994,3.0043,3.0052,3.0059,2.9961,2.996,2.996,0,0,2.921,2.9257,2.9316,2.9365,2.9437,2.9475,2.9489,2.9566,2.9594,2.9674,2.9697,2.9753,2.986,2.9909,2.9948,3.0018,3.0033,3.0037,3.0058,3.0106,3.0113,3.012,3.0147,3.0156,3.0044,3.0044,3.0044,0,2.9211,2.9303,2.9345,2.9409,2.9451,2.9481,2.9543,2.9587,2.9676,2.9705,2.9698,2.9836,2.9884,2.998,2.9997,3.0027,3.0047,3.0028,3.0109,3.0116,3.0123,3.0149,3.0159,3.0044,3.0044,3.0044,3.0044,0,2.9302,2.9366,2.9406,2.9492,2.9539,2.9601,2.9654,2.9697,2.972,2.976,2.9843,2.9902,2.9978,3.0003,3.0025,3.0103,3.0098,3.01,3.0087,3.0131,3.0157,3.0167,3.0044,3.0044,3.0044,3.0044,0,0,2.9335,2.9447,2.9461,2.9502,2.9585,2.9636,2.9701,2.9777,2.9814,2.9875,2.9932,3.0024,3.0027,3.0072,3.01,3.0142,3.0198,3.0139,3.0142,3.015,3.0291,3.029,3.0301,3.0208,3.021,3.0212,3.0286,0,2.9393,2.951,2.9552,2.9649,2.9711,2.9742,2.9799,2.9858,2.9897,2.9956,2.9999,3.0065,3.0063,3.0091,3.0134,3.0181,3.0227,3.0177,3.0263,3.0266,3.0246,3.0314,3.0313,3.038,3.0296,3.0298,3.0299,0,2.9476,2.954,2.9644,2.9724,2.9751,2.9802,2.9876,2.9931,3.0,3.0026,3.0077,3.0104,3.0175,3.0159,3.0259,3.0224,3.0262,3.0292,3.0295,3.0305,3.0285,3.0328,3.0402,3.0413,3.0315,3.0314,3.0313,0,2.9492,2.9604,2.9682,2.9716,2.981,2.9846,2.9887,2.9954,2.9998,3.0063,3.0093,3.0165,3.0205,3.0262,3.0308,3.0291,3.0406,3.0392,3.0431,3.043,3.0453,3.0451,3.0536,3.0476,3.0476,3.0475,3.0475,0,2.9554,2.9617,2.9691,2.9739,2.9811,2.986,2.993,2.9973,3.0033,3.0091,3.0122,3.0176,3.0233,3.0295,3.0332,3.0411,3.0428,3.0453,3.0462,3.0451,3.0448,3.0477,3.0474,3.0478,3.0477,3.0477,3.0476,0,2.9584,2.9636,2.9723,2.9807,2.9829,2.9879,2.9951,3.0,3.0042,3.0115,3.0135,3.0201,3.0276,3.0328,3.0424,3.0449,3.0535,3.0543,3.0513,3.0517,3.0554,3.0551,3.0661,3.068,3.0605,3.0606,3.0606,0,2.962,2.967,2.9759,2.9801,2.9842,2.9908,2.9954,3.0005,3.0052,3.0136,3.0175,3.0252,3.0317,3.0435,3.0493,3.0567,3.0578,3.0612,3.0589,3.0578,3.0581,3.0578,3.0585,3.0615,3.0616,3.0616,3.0616,0,2.968,2.9704,2.9769,2.9845,2.9899,2.9961,3.0023,3.0055,3.0117,3.0169,3.0246,3.0297,3.0396,3.0474,3.0554,3.0598,3.0619,3.0623,3.0637,3.0626,3.0607,3.0621,3.0524,3.062,3.062,3.062,3.0619,3.0619,2.9716,2.9762,2.9834,2.9907,2.9959,3.0017,3.0068,3.0118,3.0184,3.0269,3.0296,3.0377,3.0448,3.0559,3.0604,3.0669,3.0667,3.0685,3.069,3.0695,3.0696,3.0596,3.0684,3.0684,3.0684,3.0684,3.0684,0,2.9779,2.9827,2.9894,2.9981,3.0039,3.0054,3.0125,3.0172,3.0244,3.0308,3.0372,3.0463,3.054,3.0604,3.0683,3.0724,3.0736,3.0743,3.0741,3.0752,3.0692,3.0674,3.0732,3.0732,3.0732,3.0732,3.0732,3.0732,2.9818,2.99,2.9933,3.0042,3.009,3.0171,3.0211,3.0266,3.0318,3.0418,3.0482,3.0524,3.059,3.0675,3.0746,3.0764,3.0792,3.0798,3.0817,3.0761,3.0755,3.075,3.0733,3.0803,3.0803,3.0872,3.0873,3.0873]}]]